LNX65AT DRRN-FTTJ

Flight info

Callsign LNX65AT
Flight time 1h 37m
Altitude 41000
Route POLKI1E POLKI DCT DOGON UG854 SIGAL SIGAL1L
Aircraft GLF6/M-SBDE2E3FGHIJ4J5M1RWXY/LB1D1

Departure

Time 2026-04-23 22:19
Airport Diori Hamani International Airport (DRRN)

Arrival

Time 2026-04-23 23:57
Airport N'Djamena International Airport (FTTJ)
Time Latitude Longitude Altitude Speed Heading
2026-04-23 22:01 13.47822 2.18371 737 ft 0 kts 355°
2026-04-23 22:15 13.47848 2.18370 737 ft 6 kts
2026-04-23 22:15 13.47901 2.18414 737 ft 14 kts 72°
2026-04-23 22:15 13.47909 2.18511 735 ft 11 kts 61°
2026-04-23 22:16 13.47950 2.18527 734 ft 4 kts 359°
2026-04-23 22:16 13.48030 2.18511 734 ft 18 kts 309°
2026-04-23 22:16 13.48036 2.18361 736 ft 22 kts 266°
2026-04-23 22:16 13.48027 2.18145 737 ft 38 kts 269°
2026-04-23 22:17 13.48017 2.17879 739 ft 35 kts 267°
2026-04-23 22:17 13.48021 2.17634 740 ft 33 kts 275°
2026-04-23 22:17 13.48019 2.17453 740 ft 15 kts 245°
2026-04-23 22:17 13.47992 2.17286 740 ft 33 kts 265°
2026-04-23 22:18 13.47977 2.17041 740 ft 31 kts 268°
2026-04-23 22:18 13.47981 2.16983 740 ft 15 kts 291°
2026-04-23 22:18 13.48133 2.16950 740 ft 21 kts
2026-04-23 22:18 13.48180 2.17190 740 ft 76 kts 86°
2026-04-23 22:19 13.48212 2.18072 855 ft 156 kts 86°
2026-04-23 22:19 13.48238 2.19157 1736 ft 162 kts 81°
2026-04-23 22:19 13.48332 2.20440 2484 ft 200 kts 81°
2026-04-23 22:19 13.48441 2.22018 3162 ft 250 kts 82°
2026-04-23 22:20 13.48560 2.23967 3912 ft 299 kts 83°
2026-04-23 22:20 13.48690 2.26246 4639 ft 347 kts 84°
2026-04-23 22:20 13.48835 2.28880 5430 ft 382 kts 84°
2026-04-23 22:20 13.48967 2.31431 6121 ft 334 kts 84°
2026-04-23 22:21 13.49085 2.33627 6755 ft 289 kts 83°
2026-04-23 22:21 13.49192 2.35590 7407 ft 272 kts 83°
2026-04-23 22:21 13.49302 2.37528 8108 ft 276 kts 84°
2026-04-23 22:21 13.49413 2.39503 8808 ft 283 kts 84°
2026-04-23 22:22 13.49525 2.41521 9520 ft 287 kts 84°
2026-04-23 22:22 13.49637 2.43574 10238 ft 295 kts 84°
2026-04-23 22:22 13.49759 2.45764 10991 ft 317 kts 84°
2026-04-23 22:22 13.49886 2.48086 11738 ft 338 kts 84°
2026-04-23 22:23 13.50020 2.50544 12482 ft 358 kts 85°
2026-04-23 22:23 13.50163 2.53166 13233 ft 376 kts 85°
2026-04-23 22:23 13.50310 2.55898 13966 ft 393 kts 85°
2026-04-23 22:23 13.50465 2.58736 14693 ft 407 kts 85°
2026-04-23 22:24 13.50622 2.61654 15418 ft 419 kts 85°
2026-04-23 22:24 13.50784 2.64652 16141 ft 430 kts 85°
2026-04-23 22:24 13.50951 2.67754 16861 ft 441 kts 85°
2026-04-23 22:24 13.51119 2.70899 17584 ft 448 kts 85°
2026-04-23 22:25 13.51291 2.74106 18312 ft 451 kts 85°
2026-04-23 22:25 13.51462 2.77298 19037 ft 453 kts 85°
2026-04-23 22:25 13.51635 2.80533 19806 ft 460 kts 84°
2026-04-23 22:25 13.51810 2.83818 20862 ft 464 kts 84°
2026-04-23 22:26 13.51988 2.87161 21763 ft 471 kts 85°
2026-04-23 22:26 13.52166 2.90520 22644 ft 477 kts 84°
2026-04-23 22:26 13.52345 2.93920 23465 ft 484 kts 84°
2026-04-23 22:26 13.52527 2.97387 24195 ft 492 kts 84°
2026-04-23 22:27 13.52712 3.00891 24892 ft 500 kts 84°
2026-04-23 22:27 13.52901 3.04479 25735 ft 504 kts 84°
2026-04-23 22:27 13.53089 3.08085 26364 ft 513 kts 84°
2026-04-23 22:27 13.53281 3.11745 27004 ft 520 kts 83°
2026-04-23 22:28 13.53473 3.15464 27711 ft 524 kts 83°
2026-04-23 22:28 13.53668 3.19203 28245 ft 532 kts 83°
2026-04-23 22:28 13.53865 3.23016 28886 ft 536 kts 83°
2026-04-23 22:28 13.54064 3.26823 29601 ft 540 kts 84°
2026-04-23 22:29 13.54262 3.30678 30189 ft 545 kts 84°
2026-04-23 22:29 13.54461 3.34572 30903 ft 547 kts 85°
2026-04-23 22:29 13.54661 3.38483 31289 ft 555 kts 85°
2026-04-23 22:29 13.54860 3.42399 31943 ft 555 kts 85°
2026-04-23 22:30 13.55063 3.46402 32264 ft 561 kts 86°
2026-04-23 22:30 13.55264 3.50354 32810 ft 560 kts 86°
2026-04-23 22:30 13.55466 3.54367 33537 ft 557 kts 86°
2026-04-23 22:30 13.55660 3.58250 34672 ft 542 kts 86°
2026-04-23 22:31 13.55846 3.61805 38385 ft 484 kts 89°
2026-04-23 22:31 13.56012 3.65172 39533 ft 480 kts 89°
2026-04-23 22:31 13.56179 3.68612 39714 ft 490 kts 89°
2026-04-23 22:31 13.56352 3.72106 40565 ft 489 kts 88°
2026-04-23 22:32 13.56525 3.75622 40433 ft 503 kts 88°
2026-04-23 22:32 13.56705 3.79242 40450 ft 515 kts 89°
2026-04-23 22:32 13.56888 3.82951 40617 ft 523 kts 88°
2026-04-23 22:32 13.57073 3.86705 41035 ft 528 kts 88°
2026-04-23 22:33 13.57443 3.94270 40956 ft 539 kts 88°
2026-04-23 22:33 13.57818 4.01971 40984 ft 540 kts 88°
2026-04-23 22:34 13.58187 4.09611 40998 ft 537 kts 88°
2026-04-23 22:34 13.58557 4.17291 40997 ft 535 kts 88°
2026-04-23 22:35 13.58920 4.24900 40996 ft 537 kts 88°
2026-04-23 22:35 13.59284 4.32571 41005 ft 538 kts 88°
2026-04-23 22:36 13.59643 4.40241 41006 ft 538 kts 88°
2026-04-23 22:36 13.59997 4.47881 41012 ft 539 kts 88°
2026-04-23 22:37 13.60348 4.55519 41014 ft 539 kts 88°
2026-04-23 22:37 13.60699 4.63223 41013 ft 538 kts 88°
2026-04-23 22:38 13.61046 4.70859 41012 ft 537 kts 88°
2026-04-23 22:38 13.61367 4.78502 41013 ft 538 kts 89°
2026-04-23 22:39 13.61682 4.86141 41005 ft 538 kts 89°
2026-04-23 22:39 13.61996 4.93812 41002 ft 538 kts 89°
2026-04-23 22:40 13.62307 5.01475 40991 ft 539 kts 89°
2026-04-23 22:41 13.62772 5.13049 40992 ft 540 kts 88°
2026-04-23 22:41 13.63079 5.20725 40982 ft 541 kts 89°
2026-04-23 22:42 13.63383 5.28417 40986 ft 538 kts 89°
2026-04-23 22:42 13.63685 5.36109 40998 ft 539 kts 89°
2026-04-23 22:43 13.63983 5.43783 41001 ft 540 kts 89°
2026-04-23 22:43 13.64281 5.51462 41010 ft 538 kts 89°
2026-04-23 22:44 13.64575 5.59124 41019 ft 540 kts 89°
2026-04-23 22:44 13.64866 5.66811 41006 ft 540 kts 89°
2026-04-23 22:45 13.65156 5.74505 41003 ft 540 kts 89°
2026-04-23 22:45 13.65443 5.82149 41004 ft 541 kts 89°
2026-04-23 22:46 13.65727 5.89837 41013 ft 539 kts 89°
2026-04-23 22:46 13.66009 5.97508 41018 ft 538 kts 89°
2026-04-23 22:47 13.66288 6.05164 41024 ft 537 kts 89°
2026-04-23 22:47 13.66564 6.12820 41022 ft 539 kts 89°
2026-04-23 22:48 13.66840 6.20516 41022 ft 539 kts 89°
2026-04-23 22:48 13.67154 6.28220 41024 ft 540 kts 88°
2026-04-23 22:49 13.67522 6.35900 41028 ft 538 kts 88°
2026-04-23 22:49 13.67886 6.43566 41027 ft 538 kts 88°
2026-04-23 22:50 13.68251 6.51258 41033 ft 539 kts 88°
2026-04-23 22:50 13.68608 6.58902 41031 ft 540 kts 88°
2026-04-23 22:51 13.68965 6.66567 41031 ft 538 kts 89°
2026-04-23 22:51 13.69321 6.74263 41033 ft 539 kts 89°
2026-04-23 22:52 13.69674 6.81932 41042 ft 540 kts 89°
2026-04-23 22:52 13.70024 6.89604 41037 ft 538 kts 89°
2026-04-23 22:53 13.70375 6.97317 41033 ft 540 kts 89°
2026-04-23 22:53 13.70720 7.04999 41040 ft 541 kts 89°
2026-04-23 22:54 13.71063 7.12717 41035 ft 542 kts 89°
2026-04-23 22:54 13.71343 7.20400 41032 ft 541 kts 89°
2026-04-23 22:55 13.71620 7.28096 41041 ft 542 kts 89°
2026-04-23 22:55 13.71897 7.35811 41043 ft 538 kts 89°
2026-04-23 22:56 13.72168 7.43497 41047 ft 539 kts 89°
2026-04-23 22:56 13.72438 7.51176 41049 ft 541 kts 89°
2026-04-23 22:57 13.72708 7.58882 41051 ft 540 kts 89°
2026-04-23 22:57 13.72973 7.66561 41044 ft 539 kts 89°
2026-04-23 22:58 13.73236 7.74269 41045 ft 541 kts 89°
2026-04-23 22:58 13.73497 7.81947 41043 ft 540 kts 89°
2026-04-23 22:59 13.73755 7.89634 41044 ft 539 kts 89°
2026-04-23 22:59 13.74010 7.97336 41040 ft 540 kts 89°
2026-04-23 23:00 13.74265 8.04992 41043 ft 541 kts 89°
2026-04-23 23:00 13.74515 8.12697 41049 ft 542 kts 89°
2026-04-23 23:01 13.74766 8.20440 41059 ft 540 kts 89°
2026-04-23 23:01 13.75013 8.28112 41068 ft 540 kts 89°
2026-04-23 23:02 13.75254 8.35791 41067 ft 540 kts 89°
2026-04-23 23:02 13.75488 8.43497 41071 ft 541 kts 89°
2026-04-23 23:03 13.75719 8.51218 41068 ft 542 kts 89°
2026-04-23 23:03 13.75952 8.58963 41066 ft 541 kts 89°
2026-04-23 23:04 13.76179 8.66644 41059 ft 541 kts 89°
2026-04-23 23:04 13.76404 8.74331 41057 ft 541 kts 89°
2026-04-23 23:05 13.76627 8.82057 41048 ft 542 kts 89°
2026-04-23 23:05 13.76847 8.89801 41043 ft 542 kts 89°
2026-04-23 23:06 13.76861 8.97450 41014 ft 538 kts 100°
2026-04-23 23:06 13.75099 9.04886 41045 ft 535 kts 107°
2026-04-23 23:07 13.73219 9.12247 41043 ft 536 kts 106°
2026-04-23 23:07 13.71320 9.19670 41033 ft 536 kts 107°
2026-04-23 23:08 13.69425 9.27068 41036 ft 539 kts 106°
2026-04-23 23:08 13.67580 9.34264 41051 ft 536 kts 106°
2026-04-23 23:09 13.65682 9.41645 41051 ft 536 kts 107°
2026-04-23 23:09 13.63787 9.49012 41057 ft 537 kts 106°
2026-04-23 23:10 13.61878 9.56422 41054 ft 537 kts 106°
2026-04-23 23:10 13.59968 9.63836 41056 ft 537 kts 107°
2026-04-23 23:11 13.58072 9.71171 41045 ft 536 kts 107°
2026-04-23 23:11 13.56166 9.78545 41035 ft 536 kts 107°
2026-04-23 23:12 13.54245 9.85964 41038 ft 536 kts 107°
2026-04-23 23:12 13.52345 9.93290 41044 ft 535 kts 107°
2026-04-23 23:13 13.50421 10.00706 41054 ft 535 kts 107°
2026-04-23 23:13 13.48517 10.08030 41044 ft 533 kts 106°
2026-04-23 23:14 13.46681 10.15416 41034 ft 536 kts 106°
2026-04-23 23:14 13.44883 10.22803 41040 ft 536 kts 105°
2026-04-23 23:15 13.43076 10.30212 41032 ft 535 kts 105°
2026-04-23 23:15 13.41272 10.37598 41036 ft 536 kts 105°
2026-04-23 23:16 13.39459 10.45009 41034 ft 533 kts 106°
2026-04-23 23:16 13.37654 10.52379 41038 ft 535 kts 106°
2026-04-23 23:17 13.35843 10.59761 41036 ft 534 kts 105°
2026-04-23 23:17 13.33959 10.67128 41029 ft 534 kts 107°
2026-04-23 23:18 13.32007 10.74454 41023 ft 534 kts 107°
2026-04-23 23:18 13.30060 10.81771 41029 ft 534 kts 107°
2026-04-23 23:19 13.28095 10.89137 41027 ft 534 kts 107°
2026-04-23 23:19 13.26149 10.96426 41026 ft 534 kts 107°
2026-04-23 23:20 13.24183 11.03782 41026 ft 535 kts 107°
2026-04-23 23:20 13.22225 11.11097 41028 ft 535 kts 107°
2026-04-23 23:21 13.20251 11.18462 41029 ft 536 kts 107°
2026-04-23 23:21 13.18281 11.25803 41029 ft 534 kts 107°
2026-04-23 23:22 13.16310 11.33148 41031 ft 534 kts 107°
2026-04-23 23:22 13.14348 11.40437 41037 ft 534 kts 107°
2026-04-23 23:23 13.12378 11.47752 41033 ft 533 kts 107°
2026-04-23 23:23 13.10410 11.55056 41029 ft 533 kts 108°
2026-04-23 23:24 13.08441 11.62351 41029 ft 532 kts 108°
2026-04-23 23:24 13.06471 11.69641 41028 ft 530 kts 108°
2026-04-23 23:25 13.04499 11.76929 41021 ft 531 kts 108°
2026-04-23 23:25 13.02533 11.84184 41012 ft 532 kts 108°
2026-04-23 23:26 13.00550 11.91493 41011 ft 531 kts 108°
2026-04-23 23:26 12.98574 11.98776 41011 ft 531 kts 108°
2026-04-23 23:27 12.96603 12.06025 41017 ft 530 kts 108°
2026-04-23 23:27 12.94625 12.13290 41016 ft 531 kts 108°
2026-04-23 23:28 12.92638 12.20581 41023 ft 531 kts 108°
2026-04-23 23:28 12.90655 12.27845 41030 ft 531 kts 108°
2026-04-23 23:29 12.88674 12.35106 41037 ft 532 kts 108°
2026-04-23 23:29 12.86688 12.42363 41034 ft 532 kts 108°
2026-04-23 23:30 12.84693 12.49655 41032 ft 533 kts 108°
2026-04-23 23:30 12.83107 12.55443 40987 ft 522 kts 108°
2026-04-23 23:31 12.81173 12.62492 40892 ft 513 kts 108°
2026-04-23 23:31 12.79245 12.69508 40801 ft 515 kts 108°
2026-04-23 23:31 12.78280 12.73021 40459 ft 519 kts 108°
2026-04-23 23:32 12.77306 12.76558 39911 ft 521 kts 108°
2026-04-23 23:32 12.76318 12.80146 39338 ft 520 kts 108°
2026-04-23 23:32 12.75342 12.83690 38769 ft 519 kts 108°
2026-04-23 23:32 12.74375 12.87205 38221 ft 518 kts 107°
2026-04-23 23:33 12.73394 12.90760 37650 ft 520 kts 107°
2026-04-23 23:33 12.72404 12.94346 37076 ft 525 kts 107°
2026-04-23 23:33 12.71421 12.97909 36506 ft 526 kts 107°
2026-04-23 23:33 12.70417 13.01542 35914 ft 532 kts 106°
2026-04-23 23:34 12.69418 13.05160 35338 ft 535 kts 106°
2026-04-23 23:34 12.68404 13.08830 34739 ft 536 kts 105°
2026-04-23 23:34 12.67382 13.12525 34143 ft 541 kts 105°
2026-04-23 23:34 12.66367 13.16192 33549 ft 544 kts 105°
2026-04-23 23:35 12.65330 13.19934 32943 ft 546 kts 104°
2026-04-23 23:35 12.64298 13.23663 32349 ft 553 kts 104°
2026-04-23 23:35 12.63244 13.27458 31781 ft 554 kts 103°
2026-04-23 23:35 12.62190 13.31264 31176 ft 555 kts 103°
2026-04-23 23:36 12.61151 13.35004 30574 ft 547 kts 103°
2026-04-23 23:36 12.60125 13.38686 29976 ft 533 kts 102°
2026-04-23 23:36 12.59126 13.42289 29395 ft 520 kts 102°
2026-04-23 23:36 12.58153 13.45797 28835 ft 513 kts 101°
2026-04-23 23:37 12.57190 13.49322 28286 ft 508 kts 101°
2026-04-23 23:37 12.56248 13.52777 27757 ft 507 kts 102°
2026-04-23 23:37 12.55312 13.56202 27209 ft 502 kts 102°
2026-04-23 23:37 12.54368 13.59648 26648 ft 499 kts 102°
2026-04-23 23:38 12.53437 13.63050 26095 ft 495 kts 103°
2026-04-23 23:38 12.52519 13.66405 25550 ft 492 kts 103°
2026-04-23 23:38 12.51608 13.69723 25009 ft 485 kts 104°
2026-04-23 23:38 12.50695 13.73048 24472 ft 479 kts 105°
2026-04-23 23:39 12.49800 13.76310 23938 ft 476 kts 105°
2026-04-23 23:39 12.48912 13.79537 23403 ft 472 kts 106°
2026-04-23 23:39 12.48036 13.82728 22887 ft 466 kts 107°
2026-04-23 23:39 12.47163 13.85901 22372 ft 464 kts 107°
2026-04-23 23:40 12.46297 13.89043 21853 ft 457 kts 107°
2026-04-23 23:40 12.45442 13.92143 21350 ft 453 kts 107°
2026-04-23 23:40 12.44583 13.95257 20852 ft 453 kts 107°
2026-04-23 23:40 12.43743 13.98307 20361 ft 451 kts 107°
2026-04-23 23:41 12.42897 14.01376 19864 ft 445 kts 107°
2026-04-23 23:41 12.42058 14.04419 19372 ft 442 kts 107°
2026-04-23 23:41 12.41234 14.07402 18906 ft 440 kts 106°
2026-04-23 23:41 12.40400 14.10424 18404 ft 438 kts 106°
2026-04-23 23:42 12.39582 14.13384 17926 ft 434 kts 106°
2026-04-23 23:42 12.38759 14.16361 17449 ft 433 kts 105°
2026-04-23 23:42 12.37942 14.19317 16973 ft 429 kts 105°
2026-04-23 23:42 12.37135 14.22236 16501 ft 425 kts 105°
2026-04-23 23:43 12.36340 14.25109 16029 ft 418 kts 105°
2026-04-23 23:43 12.35556 14.27944 15580 ft 413 kts 105°
2026-04-23 23:43 12.34786 14.30721 15137 ft 406 kts 105°
2026-04-23 23:43 12.34017 14.33497 14701 ft 403 kts 105°
2026-04-23 23:44 12.33260 14.36231 14264 ft 396 kts 105°
2026-04-23 23:44 12.32513 14.38922 13833 ft 391 kts 105°
2026-04-23 23:44 12.31779 14.41565 13403 ft 382 kts 104°
2026-04-23 23:44 12.31073 14.44110 12984 ft 369 kts 104°
2026-04-23 23:45 12.30382 14.46602 12582 ft 357 kts 105°
2026-04-23 23:45 12.29358 14.48855 12185 ft 347 kts 122°
2026-04-23 23:45 12.27981 14.50849 11809 ft 338 kts 124°
2026-04-23 23:45 12.26636 14.52765 11429 ft 330 kts 124°
2026-04-23 23:46 12.25311 14.54653 11065 ft 322 kts 124°
2026-04-23 23:46 12.24029 14.56481 10712 ft 314 kts 124°
2026-04-23 23:46 12.22764 14.58284 10367 ft 307 kts 125°
2026-04-23 23:46 12.21544 14.60017 10033 ft 301 kts 124°
2026-04-23 23:47 12.20332 14.61740 9695 ft 295 kts 124°
2026-04-23 23:47 12.19143 14.63431 9357 ft 289 kts 125°
2026-04-23 23:47 12.17977 14.65087 9042 ft 283 kts 125°
2026-04-23 23:47 12.16847 14.66691 8746 ft 278 kts 125°
2026-04-23 23:48 12.15723 14.68287 8472 ft 272 kts 125°
2026-04-23 23:48 12.14654 14.69805 8222 ft 259 kts 125°
2026-04-23 23:48 12.13611 14.71284 7893 ft 252 kts 124°
2026-04-23 23:48 12.12604 14.72715 7595 ft 243 kts 124°
2026-04-23 23:49 12.10691 14.75431 7070 ft 229 kts 124°
2026-04-23 23:49 12.09778 14.76726 6820 ft 222 kts 124°
2026-04-23 23:49 12.08891 14.77983 6582 ft 217 kts 123°
2026-04-23 23:50 12.08021 14.79218 6345 ft 212 kts 124°
2026-04-23 23:50 12.07163 14.80436 6115 ft 207 kts 124°
2026-04-23 23:50 12.06330 14.81617 5893 ft 204 kts 123°
2026-04-23 23:50 12.05500 14.82776 5660 ft 201 kts 127°
2026-04-23 23:51 12.04519 14.83797 5440 ft 202 kts 133°
2026-04-23 23:51 12.03495 14.84798 5223 ft 202 kts 133°
2026-04-23 23:51 12.02504 14.85771 5055 ft 193 kts 133°
2026-04-23 23:51 12.01551 14.86708 4796 ft 187 kts 132°
2026-04-23 23:52 12.00632 14.87623 4577 ft 179 kts 130°
2026-04-23 23:52 12.00187 14.88725 4367 ft 168 kts 87°
2026-04-23 23:52 12.00597 14.89817 4124 ft 166 kts 52°
2026-04-23 23:52 12.01330 14.90715 3920 ft 165 kts 49°
2026-04-23 23:53 12.02102 14.91593 3714 ft 164 kts 46°
2026-04-23 23:53 12.02881 14.92444 3506 ft 165 kts 46°
2026-04-23 23:53 12.03670 14.93285 3294 ft 164 kts 45°
2026-04-23 23:53 12.04453 14.94110 3091 ft 163 kts 45°
2026-04-23 23:54 12.05245 14.94939 2883 ft 162 kts 44°
2026-04-23 23:54 12.06037 14.95766 2678 ft 154 kts 44°
2026-04-23 23:54 12.06739 14.96498 2480 ft 142 kts 44°
2026-04-23 23:54 12.07436 14.97223 2305 ft 144 kts 44°
2026-04-23 23:55 12.08139 14.97956 2130 ft 141 kts 44°
2026-04-23 23:55 12.08816 14.98662 1943 ft 136 kts 44°
2026-04-23 23:55 12.09476 14.99349 1782 ft 137 kts 44°
2026-04-23 23:55 12.10147 15.00048 1614 ft 138 kts 44°
2026-04-23 23:56 12.10821 15.00752 1441 ft 138 kts 44°
2026-04-23 23:56 12.11496 15.01455 1270 ft 137 kts 44°
2026-04-23 23:56 12.12162 15.02149 1102 ft 137 kts 44°
2026-04-23 23:56 12.12819 15.02832 976 ft 121 kts 43°
2026-04-23 23:57 12.13207 15.03225 976 ft 37 kts 51°
2026-04-23 23:57 12.13318 15.03355 976 ft 12 kts 67°
2026-04-23 23:57 12.13265 15.03449 976 ft 19 kts 136°
2026-04-23 23:57 12.13174 15.03457 976 ft 14 kts 232°
2026-04-23 23:58 12.13086 15.03366 976 ft 20 kts 225°
2026-04-23 23:58 12.13000 15.03296 976 ft 6 kts 154°
2026-04-23 23:58 12.12995 15.03332 976 ft 0 kts 91°